GW5292 Weather Reports


time (UTC)temp
C
wind
direction
speed
KPH
gust
KPH
rain 1hr
cm
rain 24hr
cm
rain mn
cm
humidity
%
barometer
mb
20260510204518 17 213 0.0 0.0 0.00 0.00 0.00 80 1013.7
20260510203031 17 213 0.0 0.0 0.00 0.00 0.00 78 1013.6
20260510201508 17 205 0.0 3.2 0.00 0.00 0.00 77 1013.8
20260510200019 18 207 1.6 3.2 0.00 0.00 0.00 75 1013.8
20260510194521 18 209 0.0 3.2 0.00 0.00 0.00 72 1013.8
20260510193025 18 202 0.0 3.2 0.00 0.00 0.00 70 1013.7
20260510191540 19 143 0.0 3.2 0.00 0.00 0.00 70 1013.9
20260510190012 20 131 0.0 4.8 0.00 0.00 0.00 70 1014.0
20260510184514 20 195 1.6 3.2 0.00 0.00 0.00 70 1013.9
20260510183020 19 206 3.2 6.4 0.00 0.03 0.00 68 1013.8
20260510181524 20 187 1.6 4.8 0.00 0.05 0.00 68 1013.9
20260510180007 20 138 1.6 6.4 0.00 0.08 0.00 68 1014.1
20260510174514 20 205 1.6 8.0 0.00 0.08 0.00 68 1013.9
20260510173019 20 211 1.6 8.0 0.00 0.08 0.00 68 1014.1
20260510171526 20 57 1.6 6.4 0.00 0.10 0.00 69 1014.1
20260510170031 20 202 3.2 9.7 0.00 0.10 0.00 68 1014.1
20260510164517 20 73 1.6 4.8 0.00 0.13 0.00 68 1014.0
20260510163018 20 207 3.2 8.0 0.00 0.20 0.00 66 1013.9
20260510161523 20 200 4.8 6.4 0.00 0.25 0.00 67 1013.8
20260510160023 20 127 4.8 8.0 0.00 0.28 0.00 68 1013.5
20260510154539 20 190 1.6 6.4 0.00 0.28 0.00 68 1013.4
20260510153015 20 330 4.8 6.4 0.00 0.28 0.00 70 1013.4
20260510151518 20 209 3.2 8.0 0.00 0.28 0.00 71 1013.3
20260510150023 20 211 3.2 4.8 0.00 0.28 0.00 73 1013.3
20260510144538 18 217 3.2 4.8 0.00 0.28 0.00 74 1013.1
20260510143039 18 210 1.6 4.8 0.00 0.28 0.00 79 1013.0
20260510141516 17 209 0.0 4.8 0.00 0.28 0.00 80 1013.0
20260510140023 17 199 1.6 4.8 0.00 0.28 0.00 84 1013.2
20260510134505 16 100 0.0 3.2 0.00 0.28 0.00 86 1013.0
20260510133004 15 196 1.6 3.2 0.00 0.28 0.00 90 1013.1
20260510131502 13 206 0.0 3.2 0.00 0.28 0.00 95 1013.0
20260510130004 12 26 0.0 3.2 0.00 0.28 0.00 95 1013.2
20260510124504 12 195 0.0 3.2 0.00 0.28 0.00 96 1013.3
20260510123013 11 195 0.0 3.2 0.00 0.28 0.00 96 1013.1
20260510121508 11 161 0.0 3.2 0.00 0.28 0.00 96 1013.1
20260510120004 11 161 0.0 3.2 0.00 0.28 0.00 96 1012.8
20260510114504 11 161 0.0 3.2 0.00 0.28 0.00 97 1012.9
20260510113013 11 161 0.0 3.2 0.00 0.28 0.00 97 1012.4
20260510111510 10 161 0.0 3.2 0.00 0.28 0.00 96 1012.2
20260510110017 10 48 1.6 1.6 0.00 0.28 0.00 96 1011.6
20260510104503 10 48 0.0 1.6 0.00 0.28 0.00 96 1011.5
20260510103006 10 157 0.0 0.0 0.00 0.28 0.00 96 1011.7
20260510101509 10 157 0.0 3.2 0.00 0.28 0.00 96 1011.7
20260510100017 10 157 1.6 3.2 0.00 0.28 0.00 96 1012.0
20260510094537 10 157 1.6 3.2 0.00 0.28 0.00 96 1011.8
20260510093003 10 136 0.0 3.2 0.00 0.28 0.00 96 1011.5
20260510091516 10 28 0.0 0.0 0.00 0.28 0.00 96 1011.2
20260510090015 10 28 0.0 3.2 0.00 0.28 0.00 96 1011.1
20260510084521 10 24 0.0 3.2 0.00 0.28 0.00 96 1011.0
20260510083016 10 24 0.0 3.2 0.00 0.28 0.00 96 1010.9
20260510081503 10 24 0.0 3.2 0.00 0.28 0.00 96 1010.9
20260510080013 10 49 0.0 3.2 0.00 0.28 0.00 96 1011.0
20260510074516 10 49 1.6 1.6 0.00 0.28 0.00 96 1011.2
20260510073020 9 141 0.0 3.2 0.00 0.28 0.00 96 1011.3
20260510071519 9 141 0.0 3.2 0.00 0.28 0.00 96 1011.7
20260510070028 9 139 3.2 4.8 0.00 0.28 0.00 96 1011.5
20260510064512 8 352 1.6 3.2 0.00 0.28 0.00 95 1011.2
20260510063017 8 126 0.0 0.0 0.00 0.28 0.00 95 1010.8
20260510061520 8 126 0.0 3.2 0.00 0.28 0.00 96 1011.0
20260510060008 8 126 0.0 1.6 0.00 0.28 0.00 95 1011.2
20260510054508 8 126 0.0 3.2 0.00 0.28 0.00 94 1011.4
20260510053036 8 126 0.0 3.2 0.00 0.28 0.00 94 1010.9
20260510051503 8 126 0.0 0.0 0.00 0.28 0.00 94 1010.6
20260510050005 8 126 0.0 0.0 0.00 0.28 0.00 94 1010.8
20260510044508 8 126 0.0 3.2 0.00 0.28 0.00 93 1010.7
20260510043014 9 126 0.0 3.2 0.00 0.28 0.00 94 1010.9
20260510041523 9 41 0.0 3.2 0.00 0.28 0.00 93 1010.9
20260510040003 10 41 0.0 3.2 0.00 0.28 0.00 93 1011.0
20260510034504 10 41 0.0 3.2 0.00 0.28 0.28 92 1010.8
20260510033009 10 41 0.0 0.0 0.00 0.28 0.28 92 1010.8
20260510031521 11 41 0.0 0.0 0.00 0.28 0.28 90 1010.8
20260510030020 11 41 0.0 3.2 0.00 0.28 0.28 91 1010.8
20260510024506 12 41 0.0 0.0 0.00 0.28 0.28 91 1010.8
20260510023006 12 33 1.6 3.2 0.00 0.28 0.28 92 1010.6
20260510021525 12 161 0.0 3.2 0.00 0.28 0.28 92 1010.6
20260510020016 12 14 0.0 3.2 0.00 0.28 0.28 92 1010.4
20260510014523 12 352 0.0 0.0 0.00 0.28 0.28 90 1010.2
20260510013004 12 352 0.0 0.0 0.00 0.28 0.28 90 1010.2
20260510011508 12 352 0.0 3.2 0.00 0.28 0.28 89 1010.1
20260510010012 12 269 0.0 0.0 0.00 0.28 0.28 88 1010.0
20260510004525 13 269 0.0 3.2 0.00 0.28 0.28 86 1009.9
20260510003024 13 273 0.0 0.0 0.00 0.28 0.28 84 1009.8
20260510001509 13 273 0.0 3.2 0.00 0.28 0.28 82 1009.5
20260510000009 14 317 0.0 3.2 0.00 0.28 0.28 80 1009.3
20260509234515 15 290 0.0 1.6 0.00 0.28 0.28 77 1009.3
20260509233020 15 179 0.0 3.2 0.00 0.28 0.28 76 1009.2
20260509231523 15 59 0.0 3.2 0.00 0.28 0.28 79 1009.3
20260509230009 15 79 0.0 3.2 0.00 0.28 0.28 79 1009.2
20260509224511 15 165 0.0 1.6 0.00 0.28 0.28 78 1009.2
20260509223016 15 165 0.0 0.0 0.00 0.28 0.28 79 1009.2
20260509221523 15 173 0.0 4.8 0.00 0.28 0.28 78 1009.1
20260509220025 15 172 0.0 3.2 0.00 0.28 0.28 80 1009.3
20260509214510 15 173 0.0 3.2 0.00 0.28 0.28 82 1009.6
20260509213025 15 161 0.0 3.2 0.00 0.28 0.28 80 1009.9
20260509211520 14 146 0.0 3.2 0.00 0.28 0.28 82 1009.5
20260509210024 14 211 0.0 3.2 0.00 0.28 0.28 82 1009.7